[[{"header":{"parameterUnit":"m.s-1","parameterCategory":1,"la1":30.2991,"la2":30.254,"lo1":-89.0895,"lo2":-89.0444,"dy":0.0017,"dx":0.0017,"nx":28,"ny":28,"refTime":"2023-09-29T03:00:00:Z","depth":0,"parameterNumber":2,"parameterNumberName":"U-component_of_WINDS"},"data":[0,0,0,0,0,0,0,0,0,0,0,0,0,0,0,0,0,0,0,0,0,0,0,0,0,0,0,0,0,0,0,0,0,0,0,0,0,0,0,0,0,0,0,0,0,0,0,0,0,0,0,0,0,0,0,0,0,0,-3.391,-3.391,0,-3.3868,-3.3867,-3.3867,-3.3728,-3.3725,-3.3722,-3.3719,-3.368,-3.3682,-3.3684,0,0,0,0,0,0,0,0,0,0,0,0,0,-3.3875,-3.3877,-3.391,-3.3909,-3.3909,-3.3868,-3.3867,-3.3867,-3.3729,-3.3725,-3.3721,-3.3718,-3.3679,-3.3682,-3.3684,0,0,0,0,0,0,0,0,0,0,0,0,0,-3.3868,-3.3877,-3.391,-3.3835,-3.3828,-3.3868,-3.3867,-3.3867,-3.3729,-3.3725,-3.372,-3.3716,-3.3679,-3.3681,-3.3684,-3.3795,0,0,-3.3693,-3.3694,0,0,0,0,0,0,0,0,-3.3868,-3.3869,-3.3847,-3.384,-3.3832,-3.3798,-3.3841,-3.3843,-3.3731,-3.3767,-3.3719,-3.3713,-3.3723,-3.3722,-3.3725,-3.3793,-3.3791,-3.3693,-3.3695,-3.3696,-3.3697,0,0,0,0,0,0,0,-3.3869,-3.387,-3.3893,-3.3846,-3.3838,-3.3805,-3.3799,-3.384,-3.3772,-3.3763,-3.3753,-3.375,-3.3719,-3.3722,-3.3723,-3.3791,-3.3693,-3.3695,-3.3697,-3.3698,-3.3951,-3.3955,0,0,0,0,0,0,-3.388,-3.3872,-3.3895,-3.3892,-3.3839,-3.3809,-3.3802,-3.3814,-3.3771,-3.376,-3.3754,-3.3744,-3.372,-3.372,-3.3721,-3.385,-3.3696,-3.3698,-3.37,-3.3946,-3.3952,-3.3957,0,0,0,0,0,0,-3.388,-3.3883,-3.3896,-3.3879,-3.3878,-3.3815,-3.3829,-3.3816,-3.3819,-3.3764,-3.3751,-3.377,-3.3716,-3.3717,-3.3778,-3.3846,-3.37,-3.3702,-3.394,-3.3948,-3.3955,-3.4108,0,0,0,0,0,0,-3.3879,-3.3884,-3.3924,-3.3881,-3.388,-3.3953,-3.3833,-3.3818,-3.3824,-3.381,-3.3776,-3.3766,-3.3713,-3.3774,-3.3781,-3.3848,-3.3704,-3.3933,-3.3943,-3.3952,-3.4096,-3.4119,-3.4139,0,0,0,0,0,-3.3878,-3.3969,-3.3927,-3.393,-3.3928,-3.3957,-3.3957,-3.3893,-3.383,-3.3871,-3.3836,-3.3767,-3.3838,-3.3782,-3.3788,-3.3857,-3.3929,-3.394,-3.3951,-3.4086,-3.4115,-3.4139,0,0,0,0,0,0,-3.4023,-3.3962,-3.3914,-3.3994,-3.3982,-3.3934,-3.3983,-3.3924,-3.3931,-3.3918,-3.3839,-3.3832,-3.3905,-3.3886,-3.3825,-3.3963,-3.3872,-3.3885,-3.3973,-3.3999,-3.402,-3.4024,-3.3707,0,0,0,0,0,-3.4064,-3.4091,-3.4036,-3.4112,-3.4108,-3.4047,-3.4057,-3.4009,-3.3994,-3.3988,-3.3957,-3.3947,-3.3966,-3.3981,-3.3996,-3.4092,-3.4084,-3.4143,-3.4164,-3.4182,-3.4195,-3.4247,-3.4273,-3.3994,-3.3994,-3.3994,0,0,-3.4149,-3.4119,-3.4141,-3.414,-3.4125,-3.4157,-3.4044,-3.4081,-3.4105,-3.3994,-3.405,-3.4028,-3.401,-3.409,-3.4124,-3.4077,-3.427,-3.4197,-3.4211,-3.4214,-3.4262,-3.4288,-3.4312,-3.4002,-3.4001,-3.3999,0,0,-3.4321,-3.43,-3.4361,-3.4348,-3.4327,-3.4286,-3.4301,-3.4262,-3.4243,-3.4297,-3.4216,-3.4243,-3.4278,-3.427,-3.4271,-3.4442,-3.438,-3.4449,-3.4563,-3.4614,-3.4636,-3.4656,-3.4719,-3.4743,-3.4461,-3.4462,-3.4462,0,-3.443,-3.4472,-3.44,-3.4444,-3.4447,-3.4348,-3.4411,-3.4402,-3.4388,-3.4393,-3.434,-3.4384,-3.4365,-3.4443,-3.4485,-3.4488,-3.4505,-3.4453,-3.4639,-3.4657,-3.4674,-3.4734,-3.4758,-3.4471,-3.447,-3.4469,-3.4468,0,-3.4609,-3.464,-3.4693,-3.4681,-3.4689,-3.4743,-3.4681,-3.4699,-3.465,-3.4616,-3.4674,-3.4648,-3.4658,-3.4672,-3.4625,-3.4744,-3.4716,-3.4652,-3.456,-3.4711,-3.4766,-3.4788,-3.4483,-3.448,-3.4477,-3.4475,0,0,-3.4871,-3.4818,-3.4839,-3.4834,-3.4803,-3.4827,-3.4877,-3.4885,-3.4903,-3.4897,-3.4938,-3.4971,-3.4912,-3.4913,-3.4865,-3.491,-3.5051,-3.484,-3.4839,-3.4883,-3.5184,-3.5234,-3.5261,-3.5008,-3.5012,-3.5016,-3.5186,0,-3.5035,-3.5116,-3.5054,-3.5147,-3.5176,-3.5083,-3.5127,-3.5114,-3.5084,-3.5106,-3.5072,-3.5098,-3.5017,-3.5017,-3.5058,-3.5025,-3.511,-3.5011,-3.5049,-3.5051,-3.5058,-3.5289,-3.5342,-3.5504,-3.5207,-3.521,-3.5213,0,-3.5238,-3.5241,-3.5337,-3.5302,-3.5313,-3.5353,-3.5357,-3.5378,-3.5363,-3.5337,-3.534,-3.5279,-3.5328,-3.5236,-3.5304,-3.5238,-3.525,-3.5236,-3.5241,-3.5244,-3.5143,-3.5301,-3.5553,-3.5579,-3.5246,-3.5243,-3.5241,0,-3.5423,-3.545,-3.5512,-3.551,-3.547,-3.5501,-3.5486,-3.5466,-3.5476,-3.548,-3.5486,-3.5495,-3.5502,-3.5512,-3.5457,-3.5394,-3.5533,-3.5436,-3.5516,-3.5518,-3.5551,-3.555,-3.5811,-3.5555,-3.5554,-3.5554,-3.5554,0,-3.5615,-3.5678,-3.5595,-3.5633,-3.5702,-3.563,-3.57,-3.5676,-3.5659,-3.5693,-3.5612,-3.5646,-3.557,-3.5597,-3.5554,-3.5619,-3.5621,-3.5604,-3.5593,-3.5613,-3.5615,-3.5621,-3.5609,-3.556,-3.5559,-3.5558,-3.5557,0,-3.5833,-3.5779,-3.5841,-3.5799,-3.579,-3.5843,-3.5807,-3.5842,-3.5806,-3.585,-3.5856,-3.5801,-3.5828,-3.5773,-3.5793,-3.5765,-3.5857,-3.5826,-3.5862,-3.5854,-3.5938,-3.5932,-3.6214,-3.6249,-3.5968,-3.5971,-3.5973,0,-3.596,-3.6007,-3.597,-3.5986,-3.5976,-3.6002,-3.6012,-3.5944,-3.5958,-3.5945,-3.5982,-3.6002,-3.6015,-3.6063,-3.6026,-3.6042,-3.6012,-3.611,-3.6014,-3.6034,-3.6017,-3.6016,-3.6022,-3.6131,-3.6134,-3.6137,-3.6139,0,-3.6193,-3.6164,-3.618,-3.6188,-3.6202,-3.6205,-3.6202,-3.6221,-3.6148,-3.6168,-3.6195,-3.6205,-3.6225,-3.6248,-3.6255,-3.6241,-3.618,-3.617,-3.6189,-3.6212,-3.6232,-3.6225,-3.5918,-3.6164,-3.6161,-3.616,-3.6158,-3.6157,-3.6371,-3.6409,-3.6389,-3.6411,-3.6401,-3.6402,-3.6433,-3.6401,-3.6421,-3.6432,-3.6391,-3.6428,-3.6413,-3.6416,-3.641,-3.6439,-3.6396,-3.6424,-3.6431,-3.644,-3.6455,-3.6225,-3.644,-3.6439,-3.6438,-3.6438,-3.6437,0,-3.6601,-3.6584,-3.6604,-3.6604,-3.6621,-3.656,-3.6555,-3.6574,-3.6607,-3.6598,-3.6613,-3.6645,-3.6666,-3.6631,-3.6648,-3.6678,-3.6651,-3.6685,-3.6683,-3.6682,-3.6491,-3.6474,-3.6707,-3.6707,-3.6707,-3.6707,-3.6707,-3.6707,-3.6723,-3.6785,-3.6754,-3.6812,-3.6794,-3.6829,-3.6832,-3.6832,-3.6825,-3.6864,-3.6881,-3.6858,-3.684,-3.6854,-3.6872,-3.6862,-3.6873,-3.6918,-3.6898,-3.6721,-3.6695,-3.667,-3.6653,-3.692,-3.692,-3.7086,-3.7088,-3.7089]},{"header":{"parameterUnit":"m.s-1","parameterCategory":1,"la1":30.2991,"la2":30.254,"lo1":-89.0895,"lo2":-89.0444,"dy":0.0017,"dx":0.0017,"nx":28,"ny":28,"refTime":"2023-09-29T03:00:00:Z","depth":0,"parameterNumber":3,"parameterNumberName":"V-component_of_WINDS"},"data":[0,0,0,0,0,0,0,0,0,0,0,0,0,0,0,0,0,0,0,0,0,0,0,0,0,0,0,0,0,0,0,0,0,0,0,0,0,0,0,0,0,0,0,0,0,0,0,0,0,0,0,0,0,0,0,0,0,0,-0.4323,-0.4324,0,-0.4335,-0.4335,-0.4335,-0.4319,-0.4318,-0.4318,-0.4317,-0.4331,-0.4332,-0.4333,0,0,0,0,0,0,0,0,0,0,0,0,0,-0.4289,-0.429,-0.4323,-0.4324,-0.4324,-0.4335,-0.4335,-0.4335,-0.4319,-0.4318,-0.4318,-0.4317,-0.4331,-0.4332,-0.4333,0,0,0,0,0,0,0,0,0,0,0,0,0,-0.4303,-0.429,-0.4323,-0.4317,-0.4317,-0.4335,-0.4335,-0.4335,-0.4319,-0.4318,-0.4318,-0.4317,-0.433,-0.4332,-0.4333,-0.4359,0,0,-0.4337,-0.4338,0,0,0,0,0,0,0,0,-0.4302,-0.4304,-0.4318,-0.4317,-0.4317,-0.4325,-0.4328,-0.4343,-0.432,-0.4318,-0.4317,-0.4316,-0.433,-0.4331,-0.4335,-0.4359,-0.436,-0.4337,-0.4338,-0.4339,-0.4339,0,0,0,0,0,0,0,-0.4301,-0.4303,-0.4328,-0.4318,-0.4318,-0.4314,-0.4315,-0.4331,-0.4329,-0.4318,-0.4317,-0.4319,-0.4329,-0.4334,-0.4335,-0.436,-0.4337,-0.4338,-0.4339,-0.434,-0.4407,-0.4408,0,0,0,0,0,0,-0.4301,-0.4303,-0.4328,-0.4328,-0.4307,-0.4315,-0.4316,-0.4323,-0.4328,-0.4328,-0.4319,-0.4318,-0.4332,-0.4334,-0.4336,-0.4368,-0.4338,-0.434,-0.4341,-0.4406,-0.4407,-0.4408,0,0,0,0,0,0,-0.43,-0.4303,-0.4327,-0.4315,-0.4318,-0.4317,-0.4324,-0.4324,-0.4328,-0.4329,-0.4329,-0.4324,-0.4331,-0.4334,-0.4353,-0.4368,-0.434,-0.4342,-0.4405,-0.4406,-0.4408,-0.4431,0,0,0,0,0,0,-0.4299,-0.4303,-0.4312,-0.4316,-0.4319,-0.4344,-0.4325,-0.4325,-0.4331,-0.4329,-0.4334,-0.4334,-0.4331,-0.4351,-0.4355,-0.4369,-0.4343,-0.4404,-0.4406,-0.4407,-0.4429,-0.4433,-0.4436,0,0,0,0,0,-0.4298,-0.4318,-0.4313,-0.4316,-0.433,-0.4345,-0.4347,-0.4342,-0.4332,-0.4342,-0.4342,-0.4334,-0.4365,-0.4353,-0.4357,-0.4372,-0.4403,-0.4405,-0.4407,-0.4427,-0.4432,-0.4436,0,0,0,0,0,0,-0.4317,-0.4319,-0.4313,-0.4335,-0.434,-0.4342,-0.4355,-0.4348,-0.4356,-0.4354,-0.4349,-0.435,-0.4371,-0.4373,-0.436,-0.4398,-0.4382,-0.4385,-0.4396,-0.4401,-0.4405,-0.4405,-0.4344,0,0,0,0,0,-0.4324,-0.4335,-0.4336,-0.4355,-0.4358,-0.4356,-0.4362,-0.4358,-0.4363,-0.4366,-0.4368,-0.4374,-0.4385,-0.4393,-0.4403,-0.4428,-0.443,-0.444,-0.4444,-0.4447,-0.4451,-0.4466,-0.4471,-0.4416,-0.4416,-0.4416,0,0,-0.4339,-0.4341,-0.4348,-0.4359,-0.4363,-0.4376,-0.4358,-0.4372,-0.4381,-0.4368,-0.4387,-0.4388,-0.4395,-0.4418,-0.4428,-0.442,-0.4466,-0.445,-0.4453,-0.4455,-0.4469,-0.4474,-0.4479,-0.4417,-0.4417,-0.4417,0,0,-0.4372,-0.4374,-0.4391,-0.4395,-0.44,-0.4398,-0.4402,-0.4406,-0.4406,-0.4425,-0.4415,-0.4427,-0.4446,-0.4451,-0.4456,-0.4491,-0.4485,-0.4494,-0.4516,-0.453,-0.4535,-0.4539,-0.4553,-0.4558,-0.4497,-0.4497,-0.4497,0,-0.439,-0.4408,-0.4401,-0.4416,-0.4422,-0.4409,-0.4427,-0.4431,-0.4439,-0.4444,-0.4435,-0.4459,-0.4462,-0.4487,-0.4496,-0.4499,-0.4505,-0.4495,-0.4534,-0.4538,-0.4542,-0.4556,-0.4561,-0.4499,-0.4499,-0.4499,-0.4498,0,-0.443,-0.4443,-0.4456,-0.4465,-0.4472,-0.4488,-0.4484,-0.4492,-0.4487,-0.4486,-0.4506,-0.4509,-0.4521,-0.4526,-0.4521,-0.455,-0.4545,-0.4535,-0.452,-0.4549,-0.4562,-0.4567,-0.4501,-0.45,-0.45,-0.45,0,0,-0.4478,-0.4482,-0.4487,-0.4492,-0.4496,-0.4506,-0.4522,-0.4533,-0.4541,-0.4546,-0.4561,-0.4577,-0.4568,-0.4574,-0.4569,-0.4582,-0.4612,-0.4571,-0.4571,-0.458,-0.4647,-0.4656,-0.4662,-0.4606,-0.4607,-0.4608,-0.4647,0,-0.4513,-0.4541,-0.4535,-0.4562,-0.4575,-0.4562,-0.4576,-0.4581,-0.4581,-0.4592,-0.4591,-0.4604,-0.4589,-0.4593,-0.4605,-0.4606,-0.4626,-0.4602,-0.4622,-0.4622,-0.4623,-0.4669,-0.4679,-0.4716,-0.4652,-0.4652,-0.4653,0,-0.4558,-0.4566,-0.4595,-0.4598,-0.4603,-0.4616,-0.4626,-0.4636,-0.4641,-0.464,-0.4646,-0.464,-0.4656,-0.4638,-0.4662,-0.4647,-0.4654,-0.4655,-0.4656,-0.466,-0.4642,-0.4677,-0.4727,-0.4734,-0.4661,-0.466,-0.4659,0,-0.4594,-0.4611,-0.4631,-0.4634,-0.4638,-0.4648,-0.465,-0.4654,-0.4661,-0.4669,-0.4674,-0.4684,-0.469,-0.4699,-0.4695,-0.4682,-0.472,-0.4702,-0.4722,-0.4722,-0.4733,-0.4733,-0.4788,-0.4732,-0.4732,-0.4732,-0.4732,0,-0.4635,-0.4654,-0.4647,-0.466,-0.468,-0.4673,-0.4694,-0.4694,-0.4698,-0.4711,-0.47,-0.4713,-0.4706,-0.4718,-0.4715,-0.4736,-0.4738,-0.4739,-0.4739,-0.4742,-0.4742,-0.4749,-0.4747,-0.4734,-0.4733,-0.4733,-0.4733,0,-0.468,-0.4675,-0.4697,-0.4698,-0.4699,-0.4714,-0.4716,-0.4728,-0.4726,-0.4743,-0.4746,-0.4744,-0.4758,-0.4754,-0.4769,-0.4767,-0.4795,-0.4789,-0.4793,-0.4793,-0.4814,-0.4813,-0.4878,-0.4887,-0.4823,-0.4823,-0.4824,0,-0.4708,-0.4722,-0.4725,-0.4733,-0.4736,-0.4748,-0.4755,-0.4748,-0.4756,-0.4763,-0.4774,-0.4787,-0.4797,-0.482,-0.482,-0.4832,-0.4829,-0.485,-0.483,-0.4834,-0.4832,-0.4833,-0.4835,-0.4855,-0.4856,-0.4856,-0.4857,0,-0.4759,-0.4757,-0.4767,-0.4777,-0.4786,-0.4793,-0.4799,-0.4806,-0.48,-0.4809,-0.4823,-0.4831,-0.4846,-0.486,-0.487,-0.4873,-0.4865,-0.4863,-0.4868,-0.4873,-0.4876,-0.4878,-0.4807,-0.4862,-0.4862,-0.4861,-0.4861,-0.4861,-0.4799,-0.4811,-0.4815,-0.4828,-0.4831,-0.4838,-0.485,-0.4849,-0.486,-0.4872,-0.4867,-0.4883,-0.4888,-0.4902,-0.4906,-0.4919,-0.4911,-0.4919,-0.4921,-0.4924,-0.4928,-0.4871,-0.492,-0.492,-0.492,-0.492,-0.492,0,-0.4852,-0.4854,-0.4865,-0.4874,-0.4884,-0.4874,-0.488,-0.489,-0.4904,-0.4909,-0.4919,-0.4936,-0.4948,-0.4949,-0.4961,-0.4972,-0.4969,-0.4976,-0.4977,-0.4978,-0.4933,-0.4928,-0.4978,-0.4978,-0.4978,-0.4978,-0.4978,-0.4978,-0.4881,-0.4903,-0.49,-0.4924,-0.4925,-0.4941,-0.4946,-0.4952,-0.4957,-0.4975,-0.4986,-0.4986,-0.4989,-0.5002,-0.5013,-0.5013,-0.502,-0.5029,-0.5028,-0.4986,-0.4981,-0.4975,-0.4971,-0.5029,-0.5029,-0.5072,-0.5072,-0.5072]}]]